Location: Stokes Fall Starparty
(41.2298°N, 74.7506°W)
Time: 06:15:48
(UTC-04:00)

Daily predictions for brighter satellites

Satellite Brightness Start Highest point End
(mag) Time Altitude Azimuth Time Altitude Azimuth Time Altitude Azimuth
Cosmos 2233 Rocket 4.2 18:59:49 10° S 19:06:08 85° W 19:12:30 10° N
Meteor 1-22 Rocket 4.1 19:05:25 10° S 19:10:42 66° E 19:15:57 10° NNE
MSX 4.1 19:07:10 10° S 19:12:52 77° WSW 19:18:40 10° NNW
USA 215 3.8 19:06:57 10° ENE 19:12:56 37° SE 19:18:53 10° SSW
Cosmos 2369 Rocket 3.9 19:10:42 10° NNE 19:14:00 16° NE 19:17:17 10° E
SKYMED 2 3.6 19:09:50 10° NNE 19:14:11 87° WNW 19:18:32 10° SSW
Cosmos 1707 3.7 19:12:37 10° NNW 19:16:23 54° W 19:20:08 10° S
Cosmos 1408 Rocket 4.0 19:12:47 10° N 19:16:52 38° ENE 19:20:53 10° SE
Meteor 1-24 Rocket 3.7 19:12:08 10° N 19:17:48 84° E 19:23:13 10° S
IDEFIX/ARIANE 42P 4.0 19:13:39 10° S 19:18:36 44° W 19:23:37 10° NNW
Cosmos 1603 4.4 19:15:41 10° SSE 19:20:44 33° ESE 19:25:51 10° NE
GPS 2-04 Rocket1 4.4 19:19:00 10° SSW 19:21:09 16° SSE 19:23:20 10° ESE
Cosmos 1624 Rocket 4.5 19:16:22 10° NNW 19:21:32 67° WSW 19:26:40 10° S
NOAA 12 4.1 19:21:12 10° SSE 19:26:23 65° ENE 19:31:38 10° N
Aureole 2 Rocket 3.5 19:25:15 10° SSW 19:29:37 66° WNW 19:33:52 10° NNE
Cosmos 1470 4.4 19:27:42 10° ESE 19:29:53 15° E 19:32:04 10° NE
SL-8 R/B 4.4 19:25:55 10° SSW 19:30:15 35° SE 19:34:17 12° ENE
ATLAS CENTAUR R/B 3.5 19:27:44 10° SW 19:32:29 78° SE 19:47:46 10° NE
Cosmos 724 4.5 19:28:54 10° S 19:34:36 53° ESE 19:40:30 10° NE
SeaSat 1 4.1 19:35:13 12° ESE 19:35:13 12° ESE 19:36:45 10° SE
Cosmos 2333 Rocket 4.4 19:30:58 10° WSW 19:35:53 28° NW 19:40:49 10° N
SAR-Lupe-1 4.1 19:32:25 10° SSE 19:35:58 84° WSW 19:39:33 10° NNW
Okean 3 Rocket 4.5 19:31:50 10° NNW 19:36:18 56° W 19:40:44 10° S
SJ-6B 2.9 19:33:29 10° SSE 19:37:27 89° WSW 19:41:33 10° NNW
In-Cosmos 22 4.2 19:33:06 10° N 19:38:51 66° ENE 19:44:33 10° SSE
Resurs 1-3 4.1 19:35:13 10° SE 19:39:18 40° ENE 19:43:25 10° N
Meteor 1-29 3.6 19:37:13 10° NNE 19:40:26 33° E 19:43:37 10° SSE
Helios 1A 3.3 19:36:41 10° SE 19:40:42 46° ENE 19:44:45 10° N
FREGAT/IRIS 2.5 19:37:51 10° SSE 19:40:56 82° ENE 19:44:02 10° N
Resurs 01 Rocket 1.7 19:38:06 10° SSE 19:42:27 56° ENE 19:46:49 10° N
CZ-4B DEB 4.1 19:41:22 18° E 19:42:31 22° ENE 19:45:07 10° NNE
Cosmos 1674 3.8 19:41:38 10° NNE 19:44:51 24° ENE 19:46:25 19° ESE
Cosmos 1743 Rocket 4.1 19:41:53 10° N 19:46:02 37° ENE 19:50:08 10° SE
NOSS 3-2 (A) 3.9 19:40:29 10° SW 19:46:31 68° NW 19:53:10 10° NNE
FengYun 1-2 T 4.3 19:42:52 10° SSE 19:48:12 53° ENE 19:53:33 10° N
Cosmos 1758 3.3 19:46:09 10° S 19:50:12 71° E 19:54:19 10° NNE
Cosmos 1452 Rocket 3.5 19:45:49 10° NNW 19:51:06 86° ENE 19:56:22 10° SSE
ATLAS 5 CENTAUR R/B 2.1 19:51:24 10° SW 19:56:10 74° NW 20:01:22 10° NNE
Abrixas 2.7 19:53:56 10° SW 19:56:49 48° SE 19:57:41 35° E
Nadezhda 4 Rocket 4.0 19:53:51 10° N 20:00:05 60° E 20:06:11 10° SSE
Cosmos 1346 3.0 19:58:23 10° N 20:01:21 59° E 20:02:39 28° SSE
Meteor 2-12 Rocket 4.4 19:58:10 10° S 20:04:19 81° E 20:10:29 10° N
Meteor 1-21 Rocket 4.1 20:02:10 10° N 20:07:45 86° E 20:13:17 10° S
Cosmos 1092 Rocket 4.1 20:01:59 10° N 20:08:01 50° ENE 20:13:46 11° SSE
Cosmos 468 4.4 20:03:06 10° SSW 20:08:21 87° ESE 20:13:38 10° NNE
GP-B 3.9 20:04:29 10° NNE 20:08:19 29° E 20:08:19 29° E
ASTEX 1 3.4 20:06:48 10° NNE 20:11:37 53° E 20:16:23 10° S
Cosmos 1420 Rocket 3.9 20:06:57 10° NNW 20:12:16 75° ENE 20:16:34 16° SSE
SL-16 R/B 3.9 20:12:12 10° WSW 20:17:19 34° WNW 20:22:29 10° N
Helios 1B rocket 2.8 20:13:38 10° N 20:17:44 66° WNW 20:21:48 10° SSW
CENTAUR R/B 2.6 20:12:17 10° S 20:17:58 47° ESE 20:24:20 10° NE
Cosmos 1544 3.3 20:15:45 10° SSW 20:19:28 74° W 20:23:13 10° N
Cosmos 2026 Rocket 4.5 20:15:43 10° N 20:21:17 36° ENE 20:22:37 32° E
Cosmos 1634 Rocket 4.1 20:17:24 10° SSE 20:23:23 50° E 20:29:21 10° NNE
NOSS 3-2 (C) 4.5 20:19:47 10° WSW 20:25:41 48° NW 20:32:10 10° NNE
CZ-2D R/B 3.1 20:24:44 45° SE 20:25:49 72° ENE 20:29:43 10° N
Spot 2 Rocket 4.3 20:22:37 10° S 20:27:30 51° W 20:32:25 10° NNW
OAO 3 Rocket 4.0 20:24:37 10° WSW 20:29:00 37° S 20:30:04 33° SSE
Cosmos 1048 Rocket 3.9 20:25:55 10° SSW 20:31:13 90° NW 20:36:30 10° NNE
Cosmos 1269 Rocket 4.1 20:26:30 10° SSW 20:31:46 77° WNW 20:37:04 10° NNE
FENGYUN 3A 3.6 20:28:50 11° SSE 20:34:05 83° WSW 20:39:31 10° NNW
Cosmos-2242 4.4 20:30:47 10° SSW 20:34:53 41° WNW 20:39:04 10° N
Envisat 4.0 20:39:20 30° NE 20:39:20 30° NE 20:42:53 10° N
H-2A R/B 2.8 20:39:09 53° S 20:39:59 78° WSW 20:43:53 10° NNW
Gbstr 26 Del rocket 3.2 20:38:11 10° SW 20:42:38 63° SE 20:42:57 61° ESE
Cosmos 2195 Rocket 4.5 20:37:04 10° N 20:43:21 62° E 20:45:27 41° SE
Cosmos 2151 3.5 20:39:30 10° N 20:42:41 45° NNE 20:42:41 45° NNE
Cosmos 1174 4.3 20:40:18 10° SSW 20:44:15 53° S 20:44:15 53° S
ISS -1.9 20:42:08 10° WSW 20:44:06 34° WSW 20:44:06 34° WSW
ALOS 2.8 20:42:16 15° S 20:46:05 57° W 20:50:42 10° NNW
BREEZE-M DEB (TANK) 3.4 20:39:33 10° WNW 20:50:59 61° N 20:52:03 49° NE
Cosmos 1842 Rocket 4.3 20:50:23 10° SSW 20:54:36 52° W 20:58:52 10° N
Cosmos 1500 Rocket 4.3 20:50:43 10° NNW 20:55:02 52° W 20:57:02 29° SSW
USA 215 3.6 20:49:41 10° NE 20:56:08 65° NW 21:02:34 10° WSW
Cosmos 158 Rocket 3.7 20:51:29 10° SSW 20:56:22 88° WNW 21:01:16 10° NNE
Cosmos 2369 Rocket 2.1 20:53:08 10° NNW 20:58:49 90° NNW 20:59:45 64° SSE
Cosmos 1943 Rocket 2.9 20:53:34 10° N 20:58:07 39° NE 20:58:07 39° NE
Cosmos 1943 3.1 20:53:41 10° SSW 20:59:20 86° WNW 21:05:00 10° NNE
Cosmos 1470 4.3 21:02:04 10° SW 21:05:39 35° WNW 21:09:16 10° N
Cosmos 2263 4.1 21:00:08 10° NNW 21:05:57 75° ENE 21:05:59 75° ENE
Cosmos 1627 Rocket 4.4 21:03:17 10° N 21:09:31 85° W 21:11:13 51° S
SL-8 R/B 4.1 21:07:56 10° WSW 21:12:17 58° NW 21:12:17 58° NW
SeaSat 1 3.8 21:07:42 10° NNE 21:15:13 29° SW 21:17:36 10° SSW
ERS-1 Rocket 3.5 21:15:21 51° N 21:15:21 51° N 21:19:08 10° N
Cosmos 1110 Rocket 4.4 21:17:57 10° NNW 21:22:20 62° NNW 21:22:20 62° NNW
Cosmos 2279 Rocket 4.3 21:46:27 61° WNW 21:46:27 61° WNW 21:52:12 10° N
CENTAUR R/B 3.8 22:03:04 10° WSW 22:08:47 36° NW 22:15:11 10° NNE
Cosmos 1943 Rocket 4.5 22:37:42 10° NW 22:39:39 19° WNW 22:39:39 19° WNW
